�������C�����ː����j�^�v���󋵏��
Date,Time,Cs137(Bq/L),Cs134(Bq/L),�S��(Bq/L)
2023/05/03,00:00,ND,ND,9.7
2023/05/03,00:10,ND,ND,ND
2023/05/03,00:20,ND,ND,12
2023/05/03,00:30,ND,ND,13
2023/05/03,00:40,ND,ND,13
2023/05/03,00:50,ND,ND,13
2023/05/03,01:00,ND,ND,13
2023/05/03,01:10,ND,ND,13
2023/05/03,01:20,ND,ND,14
2023/05/03,01:30,ND,ND,16
2023/05/03,01:40,ND,ND,19
2023/05/03,01:50,ND,ND,17
2023/05/03,02:00,ND,ND,19
2023/05/03,02:10,ND,ND,20
2023/05/03,02:20,ND,ND,19
2023/05/03,02:30,ND,ND,17
2023/05/03,02:40,ND,ND,15
2023/05/03,02:50,ND,ND,16
2023/05/03,03:00,ND,ND,18
2023/05/03,03:10,ND,ND,19
2023/05/03,03:20,ND,ND,19
2023/05/03,03:30,ND,ND,20
2023/05/03,03:40,ND,ND,23
2023/05/03,03:50,ND,ND,22
2023/05/03,04:00,ND,ND,20
2023/05/03,04:10,ND,ND,20
2023/05/03,04:20,ND,ND,19
2023/05/03,04:30,ND,ND,18
2023/05/03,04:40,ND,ND,15
2023/05/03,04:50,ND,ND,15
2023/05/03,05:00,ND,ND,14
2023/05/03,05:10,ND,ND,13
2023/05/03,05:20,ND,ND,12
2023/05/03,05:30,ND,ND,12
2023/05/03,05:40,ND,ND,13
2023/05/03,05:50,ND,ND,15
2023/05/03,06:00,ND,ND,16
2023/05/03,06:10,ND,ND,19
2023/05/03,06:20,ND,ND,20
2023/05/03,06:30,ND,ND,17
2023/05/03,06:40,ND,ND,18
2023/05/03,06:50,ND,ND,17
2023/05/03,07:00,ND,ND,18
2023/05/03,07:10,ND,ND,15
2023/05/03,07:20,ND,ND,18
2023/05/03,07:30,ND,ND,19
2023/05/03,07:40,ND,ND,20
2023/05/03,07:50,ND,ND,19
2023/05/03,08:00,ND,ND,17
2023/05/03,08:10,ND,ND,19
2023/05/03,08:20,ND,ND,18
2023/05/03,08:30,ND,ND,20
2023/05/03,08:40,ND,ND,20
2023/05/03,08:50,ND,ND,21
2023/05/03,09:00,ND,ND,22
2023/05/03,09:10,ND,ND,22
2023/05/03,09:20,ND,ND,21
2023/05/03,09:30,ND,ND,20
2023/05/03,09:40,ND,ND,22
2023/05/03,09:50,ND,ND,20
2023/05/03,10:00,ND,ND,18
2023/05/03,10:10,ND,ND,15
2023/05/03,10:20,ND,ND,12
2023/05/03,10:30,ND,ND,11
2023/05/03,10:40,ND,ND,ND
2023/05/03,10:50,ND,ND,9.5
2023/05/03,11:00,ND,ND,13
2023/05/03,11:10,ND,ND,14
2023/05/03,11:20,ND,ND,14
2023/05/03,11:30,ND,ND,16
2023/05/03,11:40,ND,ND,18
2023/05/03,11:50,ND,ND,16
2023/05/03,12:00,ND,ND,14
2023/05/03,12:10,ND,ND,15
2023/05/03,12:20,ND,ND,14
2023/05/03,12:30,ND,ND,14
2023/05/03,12:40,ND,ND,13
2023/05/03,12:50,ND,ND,15
2023/05/03,13:00,ND,ND,17
2023/05/03,13:10,ND,ND,17
2023/05/03,13:20,ND,ND,20
2023/05/03,13:30,ND,ND,20
2023/05/03,13:40,ND,ND,20
2023/05/03,13:50,ND,ND,19
2023/05/03,14:00,ND,ND,19
2023/05/03,14:10,ND,ND,19
2023/05/03,14:20,ND,ND,17
2023/05/03,14:30,ND,ND,18
2023/05/03,14:40,ND,ND,20
2023/05/03,14:50,ND,ND,19
2023/05/03,15:00,ND,ND,19
2023/05/03,15:10,ND,ND,20
2023/05/03,15:20,ND,ND,22
2023/05/03,15:30,ND,ND,19
2023/05/03,15:40,ND,ND,17
2023/05/03,15:50,ND,ND,15
2023/05/03,16:00,ND,ND,12
2023/05/03,16:10,ND,ND,13
2023/05/03,16:20,ND,ND,12
2023/05/03,16:30,ND,ND,12
2023/05/03,16:40,ND,ND,12
2023/05/03,16:50,ND,ND,17
2023/05/03,17:00,ND,ND,19
2023/05/03,17:10,ND,ND,19
2023/05/03,17:20,ND,ND,18
2023/05/03,17:30,ND,ND,19
2023/05/03,17:40,ND,ND,19
2023/05/03,17:50,ND,ND,17
2023/05/03,18:00,ND,ND,19
2023/05/03,18:10,ND,ND,14
2023/05/03,18:20,ND,ND,15
2023/05/03,18:30,ND,ND,16
2023/05/03,18:40,ND,ND,17
2023/05/03,18:50,ND,ND,16
2023/05/03,19:00,ND,ND,16
2023/05/03,19:10,ND,ND,19
2023/05/03,19:20,ND,ND,20
2023/05/03,19:30,ND,ND,20
2023/05/03,19:40,ND,ND,21
2023/05/03,19:50,ND,ND,21
2023/05/03,20:00,ND,ND,21
2023/05/03,20:10,ND,ND,22
2023/05/03,20:20,ND,ND,22
2023/05/03,20:30,ND,ND,22
2023/05/03,20:40,ND,ND,21
2023/05/03,20:50,ND,ND,20
2023/05/03,21:00,ND,ND,19
2023/05/03,21:10,ND,ND,17
2023/05/03,21:20,ND,ND,19
2023/05/03,21:30,ND,ND,17
2023/05/03,21:40,ND,ND,17
2023/05/03,21:50,ND,ND,17
2023/05/03,22:00,ND,ND,17
2023/05/03,22:10,ND,ND,19
2023/05/03,22:20,ND,ND,18
2023/05/03,22:30,ND,ND,19
2023/05/03,22:40,ND,ND,19
2023/05/03,22:50,ND,ND,18
2023/05/03,23:00,ND,ND,18
2023/05/03,23:10,ND,ND,18
2023/05/03,23:20,ND,ND,16
2023/05/03,23:30,ND,ND,17
2023/05/03,23:40,ND,ND,20
2023/05/03,23:50,ND,ND,21
